Location: Detroit
(42.3310°N, 83.0460°W)
Time: 01:03:38
(UTC-04:00)

A-11 Canister half - Pass Details

Date: 08 February 2023
Orbit: 1526 x 1682 km, 47.3° (Epoch: 20 March)

Event Time Altitude Azimuth Distance (km) Brightness Sun altitude
Rises 08:04:20 0° 278° (W) 4,676 10.9 3.7°
Reaches altitude 10° 08:07:25 10° 282° (WNW) 3,695 10.4 4.2°
Maximum altitude 08:16:41 66° 4° (N) 1,664 9.3 5.8°
Drops below altitude 10° 08:26:08 10° 86° (E) 3,767 12.2 7.3°
Sets 08:29:18 0° 90° (E) 4,772 12.8 7.8°
